Wind_Speed
23 16 13 12 22 16 14 12 12 12 15 12 12 11 15 17 20 26 28 26 19 16 20 23 24 24 21 20 23 22 21 23 24 23 17 9 3 3 6 6 9 9 12
19 15 15 15 17 14 14 15 13 14 14 15 13 12 14 17 20 23 27 27 21 16 17 22 23 23 21 20 24 22 21 22 20 17 20 14 10 6 9 10 10 9 8
19 16 15 7 21 15 12 11 13 11 11 13 12 11 11 13 18 19 23 26 25 17 17 21 22 21 19 18 21 20 19 16 14 12 15 12 14 11 8 9 9 9 6
19 16 9 14 19 15 13 11 10 9 9 11 11 9 7 9 13 15 20 24 25 19 19 21 20 19 17 17 18 17 18 16 14 9 11 8 8 11 7 6 5 7 9
16 11 6 15 18 14 9 10 9 9 11 10 10 9 8 9 12 14 17 21 21 21 19 19 18 18 20 17 16 16 16 13 13 13 12 11 11 12 11 9 3 7 3
14 8 7 14 18 14 9 4 6 9 12 11 7 9 9 9 12 13 17 19 18 19 19 18 16 17 19 23 17 18 18 15 13 15 15 11 11 10 10 9 4 1 2
13 13 17 19 14 11 11 5 3 7 12 10 8 8 8 10 12 13 14 16 18 17 17 16 16 17 18 19 21 18 19 19 16 14 18 16 10 9 7 7 7 4 4
13 16 16 15 14 11 10 5 3 6 10 10 7 7 7 9 10 14 13 16 15 15 13 15 14 13 16 17 20 21 18 15 16 16 21 20 16 13 9 8 8 7 6
11 12 15 14 11 10 11 8 7 7 7 11 7 7 8 7 10 14 11 14 13 20 16 15 12 9 11 14 16 17 17 17 15 19 16 23 25 25 20 16 10 9 8
13 10 10 11 12 11 8 10 10 9 10 11 7 7 9 10 12 13 9 14 14 15 11 12 13 10 9 12 11 12 14 16 18 18 17 20 25 26 25 20 16 13 9
5 8 11 10 10 11 12 12 11 10 11 12 9 7 9 12 11 8 8 12 17 9 15 9 13 8 7 10 9 10 12 12 16 17 20 19 26 24 25 22 19 15 7
4 6 7 9 12 13 15 15 14 14 14 13 11 10 11 10 11 9 5 7 11 11 5 15 12 7 5 11 10 9 9 11 13 15 25 21 22 26 27 25 18 12 8
7 7 9 10 12 14 17 18 19 18 15 15 14 11 10 9 9 10 5 6 5 12 13 13 9 3 5 13 12 11 11 9 11 14 24 24 25 28 27 21 13 9 7
9 8 10 13 15 17 18 20 20 21 20 18 16 14 12 10 9 9 8 8 6 6 11 12 13 8 7 11 9 10 9 9 14 13 22 26 25 28 28 25 14 8 6
10 12 12 13 16 19 19 19 20 20 21 21 17 17 17 13 15 13 13 14 11 9 10 12 13 11 5 5 10 14 10 12 18 18 17 23 24 27 27 28 19 8 7
9 9 12 14 16 19 19 21 22 23 21 20 20 21 20 17 17 17 17 18 17 13 11 14 14 10 6 6 7 11 13 9 16 14 17 22 22 23 24 26 23 13 10
14 16 18 17 17 16 19 22 22 22 23 24 25 25 23 22 21 21 19 21 21 15 13 14 13 10 6 7 4 11 10 13 8 16 22 21 24 33 24 24 21 18 12
13 9 14 18 18 18 17 18 21 23 24 23 24 23 23 23 25 24 23 23 19 15 14 13 12 7 7 9 9 9 8 11 11 10 19 13 18 30 28 23 19 18 15
18 16 11 12 15 17 18 20 20 20 22 23 24 24 24 23 24 23 23 24 22 20 15 15 12 10 11 15 12 10 15 9 9 8 15 20 12 23 29 24 21 19 16
21 20 16 15 14 15 18 18 19 21 21 19 19 20 25 23 24 27 25 23 22 22 17 14 11 13 17 19 15 11 17 18 19 14 14 8 9 15 16 24 17 19 20
21 22 21 18 17 18 19 21 21 20 19 20 21 22 23 26 28 29 27 26 24 21 18 18 16 18 19 21 13 17 11 20 27 22 15 12 19 14 10 13 14 18 20
21 22 23 22 18 18 19 21 24 24 23 23 23 26 24 23 26 28 28 29 26 24 24 22 22 16 18 24 19 21 17 19 19 16 18 14 14 14 14 17 14 17 17
26 22 20 21 21 18 19 20 21 28 27 28 25 25 24 24 23 23 24 27 27 26 28 27 26 24 20 23 15 16 17 14 19 21 15 15 21 19 18 18 24 24 9
34 27 22 18 20 21 20 20 21 22 30 31 27 25 24 24 21 18 17 19 23 22 24 25 23 21 25 26 21 22 24 22 20 17 15 15 12 17 18 23 24 29 15
32 31 25 24 21 22 23 23 22 23 23 31 28 26 23 24 19 15 12 12 13 17 17 17 18 17 19 21 22 22 25 23 21 12 16 19 19 24 21 13 14 13 16
30 30 28 24 24 26 24 25 25 24 24 24 30 26 24 19 14 10 9 11 9 8 5 4 7 11 15 13 13 20 17 22 23 16 19 18 19 21 20 20 14 12 22
Wind_Direction
139 127 162 127 138 121 113 95 82 90 79 71 75 63 50 45 36 32 33 35 39 39 30 26 25 35 49 54 57 72 65 64 69 69 63 69 79 48 62 65 21 18 10
142 140 151 144 130 130 106 94 92 87 80 66 67 60 49 45 34 25 30 35 37 47 32 27 30 48 54 60 62 68 69 73 64 65 57 71 66 71 83 54 48 36 20
147 142 142 135 140 126 112 114 87 77 67 59 58 57 49 41 27 28 37 35 37 50 41 37 39 51 58 59 68 70 61 73 71 58 36 47 42 41 26 16 39 34 70
148 143 157 157 128 145 118 123 102 88 62 45 49 48 52 28 22 37 33 36 37 47 42 40 42 52 59 57 61 62 47 51 54 52 24 30 32 30 19 34 32 95 88
144 143 111 168 159 155 145 103 83 60 40 38 34 35 42 38 35 38 27 31 38 43 42 42 47 62 58 61 57 58 54 61 78 60 41 57 45 43 43 40 356 134 94
173 166 165 182 168 170 188 123 64 31 22 26 41 33 42 31 38 34 25 31 34 38 42 43 54 66 63 65 63 62 64 62 70 58 31 37 41 44 47 48 41 150 360
180 163 163 172 178 180 207 185 8 355 7 16 15 33 37 43 40 28 29 30 33 36 39 44 50 62 69 67 64 58 63 64 62 48 41 33 12 27 29 42 24 330 324
152 159 151 169 189 200 219 223 291 328 349 7 16 33 44 47 40 21 27 24 26 33 41 46 53 62 68 67 63 57 55 48 48 51 43 43 32 22 16 19 7 357 326
152 158 165 167 180 209 225 229 259 299 323 344 347 353 11 12 13 9 31 28 45 20 31 31 46 66 72 67 67 58 47 50 43 42 42 34 31 28 25 16 349 333 336
149 169 182 186 195 208 215 233 257 284 300 322 326 330 344 349 349 3 39 31 27 41 36 71 42 55 49 59 51 46 35 30 27 21 29 30 28 24 19 12 1 347 352
170 193 194 210 219 216 220 235 253 280 297 304 302 314 330 340 344 356 29 39 36 74 50 51 54 97 42 22 22 12 18 24 23 22 18 22 10 10 5 3 359 357 353
190 217 231 223 213 225 229 237 253 263 275 282 286 295 307 330 339 340 356 27 31 46 38 16 3 26 18 5 13 360 354 353 8 22 17 11 6 8 5 358 353 348 10
256 250 234 244 247 245 241 248 256 263 268 271 279 284 292 309 319 318 310 338 2 25 37 24 5 4 318 330 346 346 3 330 355 7 14 16 16 8 6 8 9 359 31
275 275 267 255 248 253 255 260 265 268 268 269 275 277 283 289 304 301 297 297 307 337 1 4 358 342 316 323 336 341 353 337 318 342 14 9 14 12 21 26 20 35 33
269 287 287 268 263 260 256 259 266 273 273 271 267 273 277 285 290 289 287 280 287 296 325 341 340 337 294 335 336 357 347 341 333 335 332 6 12 16 21 31 24 65 33
290 272 272 293 283 268 268 265 262 265 268 273 277 274 275 269 275 282 283 280 281 290 299 315 323 324 250 326 340 351 339 322 343 312 297 357 5 22 22 32 34 30 27
296 290 285 280 282 288 279 267 270 274 271 269 266 266 268 274 278 279 285 289 283 286 296 298 316 313 261 251 300 312 294 322 335 312 328 337 343 360 21 23 42 35 25
13 319 288 283 284 283 285 280 266 269 272 272 279 278 274 271 269 270 273 274 281 280 284 288 303 265 256 266 261 270 248 280 323 302 326 323 325 341 359 13 25 37 24
357 360 352 291 282 271 278 283 276 266 264 269 275 280 280 272 267 265 265 269 272 271 274 280 295 261 251 258 272 267 250 269 264 257 281 297 286 324 341 356 18 28 24
349 343 343 342 302 283 271 272 278 274 269 272 274 275 280 276 271 268 264 261 260 264 262 254 254 256 257 245 270 266 246 249 253 251 263 264 252 311 325 335 354 24 22
348 341 335 331 327 309 282 273 276 276 266 275 286 294 291 289 280 269 265 263 257 253 253 255 241 238 251 239 250 268 242 259 259 241 273 264 279 313 315 353 347 351 13
348 341 336 334 325 320 320 280 264 266 269 272 284 293 301 297 289 275 265 261 260 253 243 245 230 241 251 233 269 258 261 259 241 252 269 255 274 272 285 303 1 348 1
339 342 337 332 333 326 323 317 284 261 263 271 278 292 305 311 292 280 268 261 257 254 247 239 243 254 249 237 265 259 274 275 257 258 250 249 272 262 266 294 306 314 330
329 333 332 329 329 327 323 318 313 286 260 265 276 286 301 308 298 289 281 266 254 251 250 250 251 243 239 247 269 263 272 264 275 268 250 265 232 269 273 277 297 306 295
323 324 327 323 321 320 320 319 314 310 281 261 270 278 293 304 294 288 282 269 251 240 242 252 249 243 257 256 253 266 264 254 254 262 249 236 249 282 292 304 315 322 314
318 319 317 315 313 310 311 315 316 307 299 276 258 267 283 295 291 274 262 250 233 210 196 223 246 251 247 255 265 272 268 249 250 246 263 269 265 287 274 272 279 305 304
Height
11020 11022 11024 11026 11029 11031 11031 11031 11030 11030 11030 11029 11028 11027 11026 11025 11023 11021 11018 11014 11011 11009 11007 11004 11001 10998 10995 10992 10990 10990 10989 10988 10988 10989 10990 10990 10990 10989 10988 10988 10988 10987 10985
11021 11023 11027 11030 11031 11033 11032 11032 11032 11032 11031 11030 11029 11028 11027 11026 11024 11023 11020 11016 11012 11010 11008 11005 11003 11000 10997 10995 10994 10993 10993 10992 10991 10992 10992 10992 10993 10992 10990 10988 10988 10988 10986
11023 11026 11030 11031 11032 11034 11033 11033 11033 11033 11033 11032 11031 11029 11028 11027 11027 11025 11022 11019 11016 11013 11011 11008 11005 11002 11000 10998 10998 10996 10995 10995 10994 10993 10993 10994 10994 10994 10992 10989 10988 10987 10987
11026 11028 11031 11034 11034 11034 11034 11034 11035 11035 11035 11034 11032 11030 11029 11029 11028 11027 11025 11022 11019 11016 11013 11010 11007 11004 11002 11001 10999 10998 10996 10995 10994 10994 10994 10993 10993 10991 10991 10990 10989 10986 10987
11028 11030 11032 11034 11035 11035 11035 11035 11036 11036 11036 11035 11034 11032 11031 11030 11029 11028 11026 11024 11021 11018 11015 11013 11011 11008 11006 11004 11002 11000 10998 10997 10997 10996 10995 10993 10993 10990 10990 10989 10989 10988 10987
11030 11031 11033 11034 11036 11036 11036 11036 11037 11037 11037 11036 11035 11034 11033 11032 11032 11031 11029 11027 11024 11021 11018 11016 11014 11012 11010 11009 11005 11003 11001 10999 10999 10998 10996 10994 10992 10992 10990 10989 10990 10989 10988
11031 11032 11034 11036 11037 11037 11036 11037 11038 11038 11038 11037 11036 11036 11034 11033 11033 11032 11030 11028 11026 11024 11021 11019 11018 11016 11013 11011 11009 11006 11004 11002 11000 11000 10998 10995 10993 10992 10991 10988 10988 10989 10988
11033 11034 11034 11036 11037 11037 11038 11038 11038 11039 11039 11038 11038 11037 11036 11036 11035 11034 11033 11030 11027 11026 11023 11021 11020 11018 11016 11014 11012 11008 11007 11005 11003 11001 10999 10998 10996 10993 10992 10989 10987 10988 10988
11035 11036 11036 11037 11037 11038 11038 11038 11038 11039 11039 11038 11039 11038 11038 11037 11037 11036 11034 11031 11029 11028 11026 11024 11022 11020 11019 11016 11014 11011 11008 11006 11004 11002 11001 11001 10999 10995 10993 10991 10989 10989 10986
11034 11037 11038 11037 11037 11038 11038 11039 11040 11040 11039 11039 11040 11039 11039 11037 11037 11036 11036 11034 11032 11029 11026 11024 11022 11023 11020 11019 11017 11014 11011 11008 11006 11004 11001 11001 10998 10994 10993 10991 10991 10987 10984
11036 11036 11036 11038 11037 11037 11038 11039 11039 11039 11040 11039 11040 11040 11039 11038 11037 11036 11037 11036 11033 11030 11029 11027 11025 11024 11022 11020 11019 11017 11015 11013 11010 11008 11004 11001 10999 10996 10995 10992 10989 10988 10984
11036 11036 11037 11037 11036 11036 11036 11037 11038 11038 11037 11037 11039 11039 11039 11039 11038 11037 11037 11035 11033 11031 11029 11027 11026 11024 11023 11022 11020 11018 11015 11013 11013 11010 11007 11004 11002 10998 10994 10989 10986 10984 10983
11036 11036 11036 11036 11036 11036 11036 11036 11036 11036 11036 11035 11036 11037 11038 11038 11038 11037 11036 11035 11033 11032 11030 11027 11025 11024 11022 11022 11020 11017 11015 11013 11013 11011 11010 11005 11000 10997 10992 10987 10984 10983 10982
11035 11036 11036 11034 11033 11033 11033 11034 11034 11034 11033 11033 11033 11034 11036 11036 11036 11035 11034 11033 11031 11030 11029 11027 11025 11024 11022 11021 11019 11016 11016 11013 11013 11012 11009 11007 11001 10997 10992 10987 10984 10984 10984
11035 11033 11032 11034 11032 11030 11030 11030 11031 11030 11031 11031 11032 11032 11034 11034 11033 11032 11031 11029 11028 11028 11026 11024 11023 11024 11018 11018 11017 11015 11014 11012 11014 11014 11010 11007 11001 10999 10995 10988 10987 10985 10986
11032 11033 11032 11030 11028 11027 11027 11027 11027 11027 11027 11028 11028 11029 11029 11031 11031 11029 11028 11026 11026 11027 11026 11025 11025 11022 11017 11016 11014 11014 11014 11012 11014 11012 11012 11008 11000 10998 10997 10991 10990 10989 10988
11026 11026 11025 11026 11024 11023 11022 11022 11022 11023 11023 11023 11024 11023 11024 11025 11026 11025 11024 11022 11022 11024 11024 11024 11022 11020 11018 11013 11013 11013 11012 11010 11010 11012 11012 11011 11005 10998 10997 10996 10991 10989 10988
11029 11024 11021 11019 11019 11018 11018 11017 11017 11017 11017 11018 11017 11018 11018 11019 11019 11020 11020 11018 11019 11019 11019 11019 11018 11015 11015 11011 11012 11010 11011 11009 11008 11010 11009 11008 11008 11002 10998 10999 10994 10989 10987
11025 11024 11021 11018 11016 11015 11015 11014 11013 11012 11011 11011 11012 11013 11013 11013 11012 11013 11013 11012 11013 11013 11014 11015 11017 11014 11012 11010 11008 11008 11008 11007 11007 11008 11008 11006 11008 11004 11002 11000 10996 10992 10989
11022 11019 11018 11016 11012 11011 11009 11009 11008 11007 11008 11007 11008 11009 11006 11007 11006 11005 11007 11006 11008 11007 11010 11010 11013 11012 11009 11006 11005 11002 11005 11007 11007 11004 11004 11003 11006 11004 11002 11000 10998 10993 10992
11021 11017 11013 11012 11009 11005 11004 11003 11003 11002 11002 11003 11003 11003 11002 11000 11000 10999 11000 11000 11001 11002 11003 11005 11006 11003 11004 11004 11003 11001 11004 11006 11003 11002 11002 11001 11004 11002 11001 10999 10996 10995 10991
11020 11014 11009 11006 11005 11003 11000 10998 10997 10997 10996 10996 10997 10996 10995 10995 10992 10991 10991 10992 10994 10996 10996 10997 10998 10998 10998 11001 11003 11004 11006 11003 11002 11001 10999 10996 10998 10999 10997 10996 10996 10992 10991
11016 11013 11008 11003 11000 10998 10995 10992 10990 10990 10991 10990 10990 10991 10989 10989 10986 10984 10984 10983 10985 10987 10988 10990 10991 10993 10993 10995 10998 10998 10999 10998 10999 10999 10995 10994 10994 10995 10994 10993 10993 10991 10992
11007 11008 11004 10999 10996 10992 10990 10987 10985 10983 10983 10983 10985 10986 10985 10982 10981 10979 10978 10977 10977 10980 10982 10983 10985 10986 10988 10990 10991 10992 10993 10992 10991 10991 10991 10992 10993 10993 10989 10989 10988 10988 10988
11000 10998 10997 10993 10990 10988 10984 10981 10979 10978 10976 10977 10979 10981 10980 10978 10976 10974 10972 10971 10971 10973 10975 10978 10980 10981 10984 10985 10986 10987 10988 10987 10986 10985 10986 10986 10988 10986 10983 10985 10986 10985 10985
10993 10990 10989 10986 10983 10981 10979 10975 10974 10972 10970 10969 10971 10974 10975 10975 10972 10970 10969 10967 10968 10970 10972 10973 10975 10977 10979 10983 10982 10980 10979 10980 10982 10982 10981 10981 10982 10980 10980 10981 10979 10977 10977